| time (UTC) | temp F | wind direction | speed MPH | gust MPH | rain 1hr in | rain 24hr in | rain mn in | humidity % | barometer mb |
| 20260505052830 | 59 | 103 | 0.0 | 0.0 | 0.00 | 0.02 | 0.02 | 83 | 1012.5 |
| 20260505052349 | 59 | 103 | 0.0 | 0.0 | 0.00 | 0.02 | 0.02 | 82 | 1012.5 |
| 20260505051838 | 60 | 110 | 0.0 | 0.0 | 0.00 | 0.02 | 0.02 | 81 | 1012.5 |
| 20260505051336 | 60 | 61 | 0.0 | 0.0 | 0.00 | 0.02 | 0.02 | 81 | 1012.5 |
| 20260505050841 | 61 | 68 | 0.0 | 0.0 | 0.00 | 0.02 | 0.02 | 80 | 1012.4 |
| 20260505050347 | 61 | 37 | 0.0 | 0.0 | 0.00 | 0.02 | 0.02 | 79 | 1012.4 |
| 20260505041313 | 64 | 304 | 0.0 | 0.0 | 0.00 | 0.02 | 0.02 | 75 | 1011.7 |
| 20260505040822 | 64 | 304 | 0.0 | 0.0 | 0.00 | 0.02 | 0.02 | 74 | 1011.8 |
| 20260505040322 | 64 | 281 | 0.0 | 0.0 | 0.00 | 0.02 | 0.02 | 74 | 1011.7 |
| 20260505035833 | 64 | 333 | 0.0 | 0.0 | 0.00 | 0.02 | 0.02 | 74 | 1011.6 |
| 20260505035312 | 65 | 248 | 0.0 | 0.0 | 0.00 | 0.02 | 0.02 | 74 | 1011.5 |
| 20260505034815 | 65 | 25 | 0.0 | 0.0 | 0.00 | 0.02 | 0.02 | 74 | 1011.4 |
| 20260505034315 | 65 | 323 | 0.0 | 0.0 | 0.00 | 0.02 | 0.02 | 73 | 1011.3 |
| 20260505033822 | 65 | 298 | 0.0 | 0.0 | 0.00 | 0.02 | 0.02 | 73 | 1011.2 |
| 20260505033322 | 66 | 298 | 0.0 | 3.0 | 0.00 | 0.02 | 0.02 | 72 | 1011.2 |
| 20260505032832 | 66 | 162 | 1.0 | 3.0 | 0.00 | 0.02 | 0.02 | 72 | 1011.2 |
| 20260505032312 | 66 | 148 | 0.0 | 2.0 | 0.00 | 0.02 | 0.02 | 73 | 1011.1 |
| 20260505031815 | 67 | 173 | 0.0 | 4.0 | 0.00 | 0.02 | 0.02 | 72 | 1011.1 |
| 20260505031315 | 67 | 139 | 0.0 | 4.0 | 0.00 | 0.02 | 0.02 | 72 | 1011.1 |
| 20260505030825 | 67 | 343 | 0.0 | 4.0 | 0.00 | 0.02 | 0.02 | 73 | 1011.0 |
| 20260505030322 | 68 | 132 | 0.0 | 4.0 | 0.00 | 0.02 | 0.02 | 72 | 1010.9 |
| 20260505025832 | 68 | 86 | 0.0 | 1.0 | 0.00 | 0.02 | 0.02 | 72 | 1010.9 |
| 20260505025316 | 69 | 58 | 0.0 | 2.0 | 0.00 | 0.02 | 0.02 | 72 | 1010.8 |
| 20260505024818 | 69 | 14 | 0.0 | 3.0 | 0.00 | 0.02 | 0.02 | 72 | 1010.8 |
| 20260505024325 | 69 | 51 | 0.0 | 3.0 | 0.00 | 0.02 | 0.02 | 71 | 1010.8 |
| 20260505023828 | 69 | 307 | 0.0 | 1.0 | 0.00 | 0.02 | 0.02 | 71 | 1010.8 |
| 20260505023328 | 69 | 310 | 0.0 | 0.0 | 0.00 | 0.02 | 0.02 | 71 | 1010.7 |
| 20260505022838 | 69 | 310 | 0.0 | 3.0 | 0.00 | 0.02 | 0.02 | 71 | 1010.7 |
| 20260505022318 | 70 | 314 | 0.0 | 4.0 | 0.00 | 0.02 | 0.02 | 70 | 1010.7 |
| 20260505021821 | 70 | 181 | 0.0 | 8.0 | 0.00 | 0.02 | 0.02 | 70 | 1010.8 |
| 20260505021328 | 70 | 136 | 1.0 | 8.0 | 0.00 | 0.02 | 0.02 | 70 | 1010.7 |
| 20260505020831 | 70 | 168 | 0.0 | 3.0 | 0.00 | 0.02 | 0.02 | 70 | 1010.8 |
| 20260505020311 | 70 | 180 | 1.0 | 3.0 | 0.00 | 0.02 | 0.02 | 70 | 1010.7 |
| 20260505015814 | 70 | 49 | 0.0 | 4.0 | 0.00 | 0.02 | 0.02 | 70 | 1010.7 |
| 20260505015321 | 70 | 112 | 0.0 | 4.0 | 0.00 | 0.02 | 0.02 | 69 | 1010.7 |
| 20260505014824 | 70 | 206 | 0.0 | 3.0 | 0.00 | 0.02 | 0.02 | 69 | 1010.7 |
| 20260505014331 | 70 | 127 | 0.0 | 3.0 | 0.00 | 0.02 | 0.02 | 68 | 1010.7 |
| 20260505013814 | 71 | 224 | 0.0 | 5.0 | 0.00 | 0.02 | 0.02 | 68 | 1010.7 |
| 20260505013314 | 71 | 118 | 1.0 | 6.0 | 0.00 | 0.02 | 0.02 | 67 | 1010.8 |
| 20260505012825 | 72 | 131 | 0.0 | 6.0 | 0.00 | 0.02 | 0.02 | 66 | 1010.8 |
| 20260505012323 | 73 | 300 | 0.0 | 6.0 | 0.00 | 0.02 | 0.02 | 64 | 1010.8 |
| 20260505011826 | 73 | 317 | 0.0 | 6.0 | 0.00 | 0.02 | 0.02 | 64 | 1010.8 |
| 20260505011333 | 73 | 200 | 0.0 | 4.0 | 0.00 | 0.02 | 0.02 | 64 | 1011.0 |
| 20260505010817 | 73 | 174 | 0.0 | 7.0 | 0.00 | 0.02 | 0.02 | 65 | 1011.0 |
| 20260505010316 | 73 | 149 | 0.0 | 7.0 | 0.00 | 0.02 | 0.02 | 64 | 1011.0 |
| 20260505005826 | 72 | 312 | 0.0 | 4.0 | 0.00 | 0.02 | 0.02 | 65 | 1011.0 |
| 20260505005325 | 73 | 314 | 0.0 | 5.0 | 0.00 | 0.02 | 0.02 | 64 | 1011.0 |
| 20260505004828 | 72 | 183 | 1.0 | 5.0 | 0.00 | 0.02 | 0.02 | 65 | 1011.1 |
| 20260505003825 | 72 | 86 | 0.0 | 4.0 | 0.00 | 0.02 | 0.02 | 64 | 1011.1 |
| 20260505003325 | 72 | 302 | 1.0 | 5.0 | 0.00 | 0.02 | 0.02 | 64 | 1011.1 |
| 20260505002316 | 72 | 222 | 0.0 | 2.0 | 0.00 | 0.02 | 0.02 | 65 | 1011.1 |
| 20260505001818 | 72 | 129 | 0.0 | 2.0 | 0.00 | 0.02 | 0.02 | 65 | 1011.2 |
| 20260505001318 | 72 | 250 | 0.0 | 12.0 | 0.00 | 0.02 | 0.02 | 65 | 1011.1 |
| 20260505000828 | 72 | 173 | 1.0 | 12.0 | 0.00 | 0.02 | 0.02 | 65 | 1011.2 |
| 20260505000328 | 72 | 309 | 0.0 | 6.0 | 0.00 | 0.02 | 0.02 | 65 | 1011.2 |
| 20260504235838 | 71 | 131 | 0.0 | 6.0 | 0.00 | 0.02 | 0.02 | 65 | 1011.2 |
| 20260504235318 | 71 | 307 | 2.0 | 5.0 | 0.00 | 0.02 | 0.02 | 65 | 1011.2 |
| 20260504234822 | 71 | 206 | 0.0 | 7.0 | 0.00 | 0.02 | 0.02 | 66 | 1011.2 |
| 20260504234321 | 71 | 191 | 1.0 | 8.0 | 0.00 | 0.02 | 0.02 | 65 | 1011.3 |
| 20260504233831 | 71 | 124 | 1.0 | 8.0 | 0.00 | 0.02 | 0.02 | 65 | 1011.4 |
| 20260504233331 | 72 | 143 | 0.0 | 5.0 | 0.00 | 0.02 | 0.02 | 64 | 1011.5 |
| 20260504232821 | 71 | 152 | 1.0 | 6.0 | 0.00 | 0.02 | 0.02 | 66 | 1011.4 |
| 20260504232328 | 70 | 164 | 2.0 | 8.0 | 0.00 | 0.02 | 0.02 | 66 | 1011.5 |
| 20260504231318 | 71 | 212 | 0.0 | 8.0 | 0.00 | 0.02 | 0.02 | 65 | 1011.5 |
| 20260504230828 | 71 | 195 | 1.0 | 4.0 | 0.00 | 0.02 | 0.02 | 64 | 1011.6 |
| 20260504225817 | 72 | 192 | 1.0 | 4.0 | 0.00 | 0.02 | 0.02 | 63 | 1011.6 |
| 20260504225324 | 72 | 178 | 0.0 | 5.0 | 0.00 | 0.02 | 0.02 | 63 | 1011.8 |
| 20260504224825 | 72 | 330 | 0.0 | 5.0 | 0.00 | 0.02 | 0.02 | 62 | 1011.9 |
| 20260504224331 | 71 | 232 | 0.0 | 5.0 | 0.00 | 0.02 | 0.02 | 64 | 1011.8 |
| 20260504223819 | 70 | 217 | 0.0 | 5.0 | 0.00 | 0.02 | 0.02 | 64 | 1011.9 |
| 20260504223318 | 70 | 295 | 1.0 | 7.0 | 0.00 | 0.02 | 0.02 | 65 | 1011.9 |
| 20260504222827 | 70 | 133 | 3.0 | 7.0 | 0.00 | 0.02 | 0.02 | 64 | 1011.9 |
| 20260504222313 | 70 | 130 | 2.0 | 7.0 | 0.00 | 0.02 | 0.02 | 65 | 1012.0 |
| 20260504221816 | 70 | 302 | 0.0 | 5.0 | 0.00 | 0.02 | 0.02 | 64 | 1012.1 |
| 20260504221322 | 69 | 324 | 1.0 | 6.0 | 0.00 | 0.02 | 0.02 | 64 | 1012.1 |
| 20260504220825 | 70 | 200 | 2.0 | 6.0 | 0.00 | 0.02 | 0.02 | 64 | 1012.2 |
| 20260504220332 | 69 | 275 | 0.0 | 8.0 | 0.00 | 0.02 | 0.02 | 65 | 1012.3 |
| 20260504215815 | 69 | 210 | 1.0 | 8.0 | 0.00 | 0.02 | 0.02 | 64 | 1012.3 |
| 20260504215315 | 70 | 134 | 1.0 | 4.0 | 0.00 | 0.02 | 0.02 | 64 | 1012.4 |
| 20260504214818 | 70 | 1 | 1.0 | 3.0 | 0.00 | 0.02 | 0.02 | 64 | 1012.4 |
| 20260504214325 | 71 | 342 | 1.0 | 6.0 | 0.00 | 0.02 | 0.02 | 62 | 1012.4 |
| 20260504213827 | 69 | 289 | 1.0 | 6.0 | 0.00 | 0.02 | 0.02 | 66 | 1012.5 |
| 20260504213335 | 68 | 70 | 2.0 | 5.0 | 0.00 | 0.02 | 0.02 | 67 | 1012.5 |
| 20260504212817 | 67 | 306 | 2.0 | 6.0 | 0.00 | 0.02 | 0.02 | 67 | 1012.6 |
| 20260504211813 | 68 | 328 | 0.0 | 5.0 | 0.00 | 0.02 | 0.02 | 65 | 1012.6 |
| 20260504211321 | 68 | 308 | 0.0 | 5.0 | 0.01 | 0.02 | 0.02 | 66 | 1012.8 |
| 20260504210824 | 67 | 180 | 2.0 | 5.0 | 0.01 | 0.02 | 0.02 | 67 | 1012.9 |
| 20260504210329 | 66 | 345 | 0.0 | 5.0 | 0.01 | 0.02 | 0.02 | 68 | 1012.9 |
| 20260504205820 | 67 | 243 | 1.0 | 5.0 | 0.01 | 0.02 | 0.02 | 67 | 1013.0 |
| 20260504205317 | 66 | 266 | 0.0 | 7.0 | 0.01 | 0.02 | 0.02 | 68 | 1013.1 |
| 20260504204826 | 66 | 327 | 1.0 | 7.0 | 0.01 | 0.02 | 0.02 | 69 | 1013.1 |
| 20260504204349 | 66 | 163 | 0.0 | 7.0 | 0.01 | 0.02 | 0.02 | 69 | 1013.2 |
| 20260504203859 | 65 | 210 | 1.0 | 8.0 | 0.01 | 0.02 | 0.02 | 69 | 1013.3 |
| 20260504203338 | 65 | 143 | 0.0 | 7.0 | 0.01 | 0.02 | 0.02 | 71 | 1013.2 |
| 20260504202847 | 65 | 309 | 0.0 | 7.0 | 0.01 | 0.02 | 0.02 | 71 | 1013.3 |
| 20260504202346 | 64 | 140 | 2.0 | 5.0 | 0.01 | 0.02 | 0.02 | 72 | 1013.3 |
| 20260504201834 | 64 | 4 | 1.0 | 6.0 | 0.01 | 0.02 | 0.02 | 73 | 1013.4 |
| 20260504201339 | 63 | 105 | 1.0 | 10.0 | 0.00 | 0.01 | 0.01 | 74 | 1013.5 |
| 20260504200842 | 62 | 214 | 2.0 | 10.0 | 0.00 | 0.01 | 0.01 | 75 | 1013.4 |
| 20260504200345 | 62 | 312 | 1.0 | 7.0 | 0.00 | 0.01 | 0.01 | 75 | 1013.6 |
| 20260504195834 | 63 | 104 | 1.0 | 3.0 | 0.00 | 0.01 | 0.01 | 74 | 1013.7 |
| 20260504195333 | 62 | 115 | 0.0 | 9.0 | 0.00 | 0.01 | 0.01 | 76 | 1013.7 |
| 20260504194841 | 62 | 122 | 2.0 | 9.0 | 0.00 | 0.01 | 0.01 | 76 | 1013.7 |
| 20260504194347 | 62 | 16 | 0.0 | 7.0 | 0.00 | 0.01 | 0.01 | 75 | 1013.7 |
| 20260504193856 | 62 | 15 | 0.0 | 5.0 | 0.00 | 0.01 | 0.01 | 77 | 1013.7 |
| 20260504193335 | 61 | 174 | 1.0 | 8.0 | 0.01 | 0.01 | 0.01 | 78 | 1013.7 |
| 20260504192844 | 60 | 168 | 0.0 | 6.0 | 0.01 | 0.01 | 0.01 | 79 | 1013.8 |
| 20260504192351 | 60 | 158 | 0.0 | 5.0 | 0.01 | 0.01 | 0.01 | 80 | 1013.9 |
| 20260504191813 | 60 | 105 | 0.0 | 5.0 | 0.01 | 0.01 | 0.01 | 80 | 1013.9 |
| 20260504191313 | 60 | 338 | 0.0 | 5.0 | 0.01 | 0.01 | 0.01 | 80 | 1013.9 |
| 20260504190822 | 59 | 223 | 1.0 | 4.0 | 0.01 | 0.01 | 0.01 | 80 | 1013.9 |
| 20260504190330 | 59 | 258 | 1.0 | 4.0 | 0.01 | 0.01 | 0.01 | 81 | 1013.9 |
| 20260504185812 | 58 | 285 | 1.0 | 7.0 | 0.01 | 0.01 | 0.01 | 83 | 1013.9 |
| 20260504185312 | 58 | 300 | 0.0 | 6.0 | 0.01 | 0.01 | 0.01 | 82 | 1014.0 |
| 20260504184822 | 58 | 175 | 0.0 | 5.0 | 0.01 | 0.01 | 0.01 | 83 | 1014.1 |
| 20260504184322 | 58 | 223 | 1.0 | 4.0 | 0.01 | 0.01 | 0.01 | 83 | 1014.1 |
| 20260504183825 | 57 | 210 | 0.0 | 6.0 | 0.01 | 0.01 | 0.01 | 84 | 1014.1 |
| 20260504183313 | 57 | 128 | 2.0 | 6.0 | 0.00 | 0.00 | 0.00 | 84 | 1014.1 |
| 20260504182815 | 57 | 291 | 2.0 | 6.0 | 0.00 | 0.00 | 0.00 | 84 | 1014.0 |
| 20260504182315 | 57 | 324 | 0.0 | 2.0 | 0.00 | 0.00 | 0.00 | 83 | 1014.0 |
| 20260504181825 | 57 | 352 | 0.0 | 4.0 | 0.00 | 0.00 | 0.00 | 85 | 1014.0 |
| 20260504181325 | 57 | 293 | 1.0 | 4.0 | 0.00 | 0.00 | 0.00 | 84 | 1014.0 |
| 20260504180835 | 57 | 312 | 0.0 | 3.0 | 0.00 | 0.00 | 0.00 | 85 | 1014.0 |
| 20260504180315 | 57 | 302 | 0.0 | 3.0 | 0.00 | 0.00 | 0.00 | 85 | 1014.0 |
| 20260504175824 | 56 | 294 | 0.0 | 1.0 | 0.00 | 0.00 | 0.00 | 86 | 1014.0 |
| 20260504175330 | 56 | 263 | 0.0 | 3.0 | 0.00 | 0.00 | 0.00 | 86 | 1014.0 |
| 20260504174820 | 56 | 90 | 0.0 | 3.0 | 0.00 | 0.00 | 0.00 | 86 | 1013.9 |
| 20260504174319 | 56 | 307 | 0.0 | 8.0 | 0.00 | 0.00 | 0.00 | 87 | 1014.0 |
| 20260504173828 | 56 | 313 | 1.0 | 8.0 | 0.00 | 0.00 | 0.00 | 87 | 1013.9 |
| 20260504173330 | 56 | 243 | 0.0 | 5.0 | 0.00 | 0.00 | 0.00 | 87 | 1013.9 |
| 20260504172819 | 56 | 294 | 0.0 | 5.0 | 0.00 | 0.00 | 0.00 | 88 | 1013.9 |
| 20260504172325 | 55 | 309 | 0.0 | 3.0 | 0.00 | 0.00 | 0.00 | 88 | 1013.8 |
| 20260504171834 | 55 | 210 | 0.0 | 4.0 | 0.00 | 0.00 | 0.00 | 88 | 1013.8 |
| 20260504171313 | 55 | 1 | 0.0 | 2.0 | 0.00 | 0.00 | 0.00 | 89 | 1013.8 |
| 20260504170816 | 55 | 312 | 0.0 | 8.0 | 0.00 | 0.00 | 0.00 | 89 | 1013.8 |
| 20260504170316 | 55 | 314 | 1.0 | 8.0 | 0.00 | 0.00 | 0.00 | 89 | 1013.7 |
| 20260504160332 | 54 | 313 | 0.0 | 5.0 | 0.00 | 0.00 | 0.00 | 91 | 1013.8 |
| 20260504150336 | 52 | 158 | 0.0 | 8.0 | 0.00 | 0.00 | 0.00 | 92 | 1013.2 |
| 20260504141321 | 52 | 294 | 1.0 | 6.0 | 0.00 | 0.00 | 0.00 | 93 | 1012.7 |
| 20260504140831 | 52 | 323 | 0.0 | 6.0 | 0.00 | 0.00 | 0.00 | 93 | 1012.6 |
| 20260504140331 | 51 | 281 | 0.0 | 6.0 | 0.00 | 0.00 | 0.00 | 93 | 1012.5 |
| 20260504130333 | 51 | 38 | 0.0 | 9.0 | 0.00 | 0.00 | 0.00 | 92 | 1011.5 |
| 20260504110330 | 56 | 205 | 4.0 | 12.0 | 0.00 | 0.00 | 0.00 | 84 | 1010.3 |
| 20260504100320 | 60 | 185 | 2.0 | 10.0 | 0.00 | 0.00 | 0.00 | 76 | 1009.7 |
| 20260504081812 | 68 | 216 | 0.0 | 0.0 | 0.00 | 0.00 | 0.00 | 53 | 1009.2 |
| 20260504081319 | 68 | 216 | 0.0 | 0.0 | 0.00 | 0.00 | 0.00 | 52 | 1009.2 |
| 20260504080822 | 68 | 216 | 0.0 | 0.0 | 0.00 | 0.00 | 0.00 | 51 | 1009.1 |
| 20260504080329 | 68 | 216 | 0.0 | 0.0 | 0.00 | 0.00 | 0.00 | 51 | 1009.1 |
| 20260504070335 | 71 | 217 | 0.0 | 0.0 | 0.00 | 0.00 | 0.00 | 44 | 1008.8 |